Regional Weather Roundup
Issued by NWS

Home | Current Version | Previous Version | Graphics & Text | Print | Product List | Glossary On
Versions: 1 2 3 4 5 6 7 8 9 10 11 12 13 14 15 16 17 18 19 20 21 22 23 24 25 26 27 28 29 30 31 32 33 34 35 36 37 38 39 40 41 42 43 44 45 46 47 48 49 50
510
ASUS43 KIND 280659
RWRIN

WEATHER ROUNDUP FOR INDIANA
NATIONAL WEATHER SERVICE INDIANAPOLIS IN
200 AM EST TUE FEB 28 2017

NOTE: "FAIR" INDICATES FEW OR NO CLOUDS BELOW 12,000 FEET WITH NO
SIGNIFICANT WEATHER AND/OR OBSTRUCTIONS TO VISIBILITY.

* - STATION DOES NOT REPORT WEATHER SUCH AS PRECIPITATION OR FOG.

+ - STATION NOT QUALITY CONTROLLED BY THE NATIONAL WEATHER SERVICE.
    USE DATA WITH CAUTION...ESPECIALLY DEWPOINT AND RELATIVE
    HUMIDITY OBSERVATIONS.

INZ001>003-010>013-019-020-280800-
NORTHWEST INDIANA

CITY           SKY/WX    TMP DP  RH WIND       PRES   REMARKS
KNOX *+        CLOUDY    43  28  56 SE14      30.04F

$$

LMZ046-743>745-280800-
SOUTHERN LAKE MICHIGAN

STATION/POSITION TIME  TEMP    WIND        PRES    WAVE
                       AIR SEA DIR/SP/G            HT
                 (UTC) (F)     (DEG/KT/KT) (MB)    (FT)
BURNS HARBOR     0640   47     170/ 13/ 18 1017.3F
MICHIGAN CITY    0630   45     120/ 13/ 16   N/A

$$

INZ004-005-014>016-021>024-280800-
NORTH CENTRAL INDIANA

CITY           SKY/WX    TMP DP  RH WIND       PRES   REMARKS
GOSHEN         CLOUDY    42  38  85 SE12      30.09F
SOUTH BEND     MOCLDY    43  39  86 SE15      30.06F

$$

INZ006>009-017-018-025>027-280800-
NORTHEAST INDIANA

CITY           SKY/WX    TMP DP  RH WIND       PRES   REMARKS
ANGOLA *+      CLOUDY    39  36  87 S7        30.13R
FORT WAYNE     CLOUDY    42  39  89 E5        30.12F FOG
KENDALLVILLE + CLOUDY    40  40  99 SE8       30.13R FOG

$$

INZ028-029-035-036-043>045-051>053-280800-
WEST CENTRAL INDIANA

CITY           SKY/WX    TMP DP  RH WIND       PRES   REMARKS
LAFAYETTE      MOCLDY    46  42  86 SE8       30.00F
TERRE HAUTE    CLOUDY    50  41  71 S12       30.03F

$$

INZ030>032-037>040-046>048-054>057-064-065-280800-
CENTRAL INDIANA

CITY           SKY/WX    TMP DP  RH WIND       PRES   REMARKS
GREENWOOD *+   CLOUDY    44  40  85 SE6       30.07F
INDIANAPOLIS   CLOUDY    45  40  82 SE13      30.05F
-EAGLE CREEK   MOCLDY    46  39  76 SE8       30.05F
KOKOMO +       LGT RAIN  44  41  89 SE15      30.06F
MT COMFORT *+  CLOUDY    43  39  87 SE6       30.09F
SHELBYVILLE    CLOUDY    48  39  71 SE9       30.08F

$$

INZ033-034-041-042-049-050-058-059-280800-
EAST CENTRAL INDIANA

CITY           SKY/WX    TMP DP  RH WIND       PRES   REMARKS
MUNCIE         CLOUDY    47  39  74 SE8       30.10F

$$

INZ060-061-067>069-081>083-085>088-280800-
SOUTHWEST INDIANA

CITY           SKY/WX    TMP DP  RH WIND       PRES   REMARKS
EVANSVILLE     CLOUDY    53  44  71 S10       30.05F
HUNTINGBURG *+ CLOUDY    52  45  76 S10       30.06F

$$

INZ062-063-066-070>080-084-089>092-280800-
SOUTH CENTRAL AND SOUTHEAST INDIANA

CITY           SKY/WX    TMP DP  RH WIND       PRES   REMARKS
BLOOMINGTON    CLOUDY    47  39  74 S10       30.05F
MADISON *+     CLOUDY    46  41  81 SE7       30.13F
SEYMOUR +      CLOUDY    48  41  76 S10       30.10F

$$





USA.gov is the U.S. government's official web portal to all federal, state and local government web resources and services.